RYR6RY EPKK-LGTS

Flight info

Callsign RYR6RY
Flight time 1h 25m
Altitude 37000
Route BABKO DCT NIDOK DCT AMRAX DCT PARAK DCT IRGOR DCT IBISI DCT MAKED P36 ALIKO
Aircraft B38M/M-SADE3FGIJ1LRWY/SB1

Departure

Time 2026-05-05 11:17
Airport Kraków John Paul II International Airport (EPKK)

Arrival

Time 2026-05-05 12:43
Airport Thessaloniki Macedonia International Airport (LGTS)
Time Latitude Longitude Altitude Speed Heading
2026-05-05 10:50 50.07573 19.80099 802 ft 0 kts 347°
2026-05-05 11:08 50.07575 19.80098 802 ft 2 kts 347°
2026-05-05 11:09 50.07615 19.80099 802 ft 8 kts 36°
2026-05-05 11:09 50.07638 19.80180 802 ft 9 kts 76°
2026-05-05 11:09 50.07655 19.80289 802 ft 11 kts 76°
2026-05-05 11:09 50.07694 19.80385 802 ft 11 kts
2026-05-05 11:10 50.07743 19.80371 802 ft 3 kts 347°
2026-05-05 11:10 50.07774 19.80360 802 ft 6 kts 347°
2026-05-05 11:10 50.07820 19.80344 802 ft 7 kts 348°
2026-05-05 11:10 50.07835 19.80339 802 ft 0 kts 348°
2026-05-05 11:15 50.07836 19.80339 802 ft 1 kts 348°
2026-05-05 11:15 50.07866 19.80329 802 ft 6 kts 348°
2026-05-05 11:16 50.07917 19.80313 802 ft 9 kts 348°
2026-05-05 11:16 50.07983 19.80291 802 ft 9 kts 348°
2026-05-05 11:16 50.08013 19.80211 802 ft 12 kts 265°
2026-05-05 11:16 50.07960 19.79828 802 ft 73 kts 258°
2026-05-05 11:17 50.07803 19.78696 804 ft 139 kts 258°
2026-05-05 11:17 50.07564 19.77021 1086 ft 169 kts 255°
2026-05-05 11:17 50.07321 19.75185 1835 ft 175 kts 254°
2026-05-05 11:17 50.07052 19.73327 2635 ft 181 kts 253°
2026-05-05 11:18 50.06751 19.71267 3316 ft 203 kts 252°
2026-05-05 11:18 50.06092 19.69325 4100 ft 202 kts 220°
2026-05-05 11:18 50.04880 19.68147 4836 ft 216 kts 197°
2026-05-05 11:18 50.03899 19.67716 5365 ft 225 kts 197°
2026-05-05 11:19 50.02345 19.66960 6129 ft 243 kts 198°
2026-05-05 11:19 50.00675 19.66137 6829 ft 262 kts 198°
2026-05-05 11:19 49.98867 19.65251 7458 ft 283 kts 198°
2026-05-05 11:19 49.96919 19.64296 7990 ft 304 kts 199°
2026-05-05 11:20 49.94829 19.63276 8528 ft 324 kts 198°
2026-05-05 11:20 49.92611 19.62193 9008 ft 344 kts 199°
2026-05-05 11:20 49.90280 19.61055 9637 ft 355 kts 199°
2026-05-05 11:20 49.87918 19.59905 10459 ft 359 kts 199°
2026-05-05 11:21 49.85606 19.58776 11217 ft 362 kts 199°
2026-05-05 11:21 49.83179 19.57597 11998 ft 366 kts 199°
2026-05-05 11:21 49.80736 19.56410 12708 ft 370 kts 199°
2026-05-05 11:21 49.78265 19.55210 13471 ft 374 kts 199°
2026-05-05 11:22 49.75736 19.53984 14136 ft 376 kts 199°
2026-05-05 11:22 49.73226 19.52768 14764 ft 380 kts 199°
2026-05-05 11:22 49.70693 19.51542 15384 ft 383 kts 199°
2026-05-05 11:22 49.68138 19.50308 16012 ft 386 kts 199°
2026-05-05 11:23 49.65557 19.49061 16568 ft 389 kts 199°
2026-05-05 11:23 49.62967 19.47813 17132 ft 393 kts 199°
2026-05-05 11:23 49.60275 19.46941 17639 ft 399 kts 185°
2026-05-05 11:23 49.57494 19.46743 18260 ft 402 kts 186°
2026-05-05 11:24 49.54683 19.46511 18665 ft 407 kts 185°
2026-05-05 11:24 49.51854 19.46299 19166 ft 409 kts 185°
2026-05-05 11:24 49.48996 19.46094 19616 ft 413 kts 184°
2026-05-05 11:24 49.46111 19.45891 20039 ft 417 kts 185°
2026-05-05 11:25 49.43207 19.45690 20520 ft 419 kts 185°
2026-05-05 11:25 49.40274 19.45487 20941 ft 423 kts 184°
2026-05-05 11:25 49.37324 19.45281 21392 ft 426 kts 185°
2026-05-05 11:25 49.34356 19.45076 21822 ft 429 kts 185°
2026-05-05 11:26 49.31366 19.44868 22291 ft 432 kts 185°
2026-05-05 11:26 49.28355 19.44660 22732 ft 435 kts 185°
2026-05-05 11:26 49.25315 19.44450 23172 ft 439 kts 185°
2026-05-05 11:26 49.22254 19.44238 23596 ft 442 kts 185°
2026-05-05 11:27 49.19174 19.44026 23959 ft 445 kts 185°
2026-05-05 11:27 49.16073 19.43813 24393 ft 447 kts 184°
2026-05-05 11:27 49.12962 19.43599 24774 ft 450 kts 185°
2026-05-05 11:27 49.09825 19.43384 25174 ft 452 kts 185°
2026-05-05 11:28 49.06669 19.43166 25552 ft 455 kts 184°
2026-05-05 11:28 49.03501 19.42950 25931 ft 458 kts 185°
2026-05-05 11:28 49.00310 19.42732 26321 ft 460 kts 184°
2026-05-05 11:28 48.97104 19.42513 26676 ft 463 kts 185°
2026-05-05 11:29 48.93889 19.42294 27057 ft 464 kts 184°
2026-05-05 11:29 48.90658 19.42074 27510 ft 464 kts 184°
2026-05-05 11:29 48.87426 19.41854 27966 ft 464 kts 185°
2026-05-05 11:29 48.84204 19.41634 28435 ft 464 kts 185°
2026-05-05 11:30 48.80982 19.41416 28904 ft 463 kts 184°
2026-05-05 11:30 48.77767 19.41197 29374 ft 462 kts 184°
2026-05-05 11:30 48.74517 19.40979 29872 ft 461 kts 184°
2026-05-05 11:30 48.71311 19.40761 30286 ft 461 kts 184°
2026-05-05 11:31 48.68114 19.40545 30679 ft 459 kts 184°
2026-05-05 11:31 48.64928 19.40330 31110 ft 457 kts 185°
2026-05-05 11:31 48.61755 19.40117 31531 ft 456 kts 185°
2026-05-05 11:31 48.58590 19.39904 31941 ft 454 kts 185°
2026-05-05 11:32 48.55434 19.39691 32362 ft 453 kts 185°
2026-05-05 11:32 48.52300 19.39480 32749 ft 452 kts 184°
2026-05-05 11:32 48.49157 19.39271 33109 ft 451 kts 185°
2026-05-05 11:32 48.46022 19.39061 33507 ft 450 kts 184°
2026-05-05 11:33 48.42896 19.38851 33865 ft 450 kts 184°
2026-05-05 11:33 48.39769 19.38643 34209 ft 449 kts 185°
2026-05-05 11:33 48.36653 19.38436 34510 ft 449 kts 185°
2026-05-05 11:33 48.33531 19.38227 34780 ft 449 kts 185°
2026-05-05 11:34 48.30405 19.38019 35054 ft 450 kts 185°
2026-05-05 11:34 48.27278 19.37812 35334 ft 450 kts 185°
2026-05-05 11:34 48.24148 19.37603 35603 ft 451 kts 185°
2026-05-05 11:34 48.21012 19.37396 35870 ft 451 kts 185°
2026-05-05 11:35 48.17871 19.37188 36125 ft 452 kts 185°
2026-05-05 11:35 48.14738 19.36980 36386 ft 452 kts 185°
2026-05-05 11:35 48.11593 19.36773 36639 ft 452 kts 185°
2026-05-05 11:35 48.08465 19.37014 36862 ft 456 kts 171°
2026-05-05 11:36 48.05363 19.38179 36961 ft 459 kts 168°
2026-05-05 11:36 47.99203 19.40510 36966 ft 458 kts 168°
2026-05-05 11:37 47.93040 19.42905 36965 ft 458 kts 168°
2026-05-05 11:37 47.86872 19.45306 36966 ft 458 kts 168°
2026-05-05 11:38 47.80656 19.47719 36971 ft 459 kts 168°
2026-05-05 11:38 47.74482 19.50111 36971 ft 459 kts 168°
2026-05-05 11:39 47.68302 19.52498 36971 ft 459 kts 167°
2026-05-05 11:39 47.62123 19.54880 36969 ft 459 kts 167°
2026-05-05 11:40 47.55943 19.57255 36971 ft 459 kts 167°
2026-05-05 11:40 47.49752 19.59629 36969 ft 459 kts 167°
2026-05-05 11:41 47.43568 19.61996 36972 ft 460 kts 167°
2026-05-05 11:41 47.37373 19.64359 36971 ft 460 kts 167°
2026-05-05 11:42 47.31180 19.66718 36975 ft 460 kts 167°
2026-05-05 11:42 47.24983 19.69071 36977 ft 460 kts 167°
2026-05-05 11:43 47.18776 19.71423 36981 ft 460 kts 167°
2026-05-05 11:43 47.12583 19.73764 36985 ft 460 kts 167°
2026-05-05 11:44 47.06378 19.76104 36993 ft 460 kts 167°
2026-05-05 11:44 47.00171 19.78438 36994 ft 461 kts 167°
2026-05-05 11:45 46.93958 19.80770 36993 ft 461 kts 167°
2026-05-05 11:45 46.87704 19.83111 36996 ft 461 kts 167°
2026-05-05 11:46 46.81486 19.85433 36991 ft 462 kts 167°
2026-05-05 11:46 46.75257 19.87754 36989 ft 461 kts 167°
2026-05-05 11:47 46.69038 19.90065 36987 ft 461 kts 167°
2026-05-05 11:47 46.62821 19.92371 36985 ft 461 kts 167°
2026-05-05 11:48 46.53481 19.95824 36984 ft 462 kts 167°
2026-05-05 11:48 46.47252 19.98120 36985 ft 462 kts 167°
2026-05-05 11:49 46.41015 20.00413 36988 ft 462 kts 167°
2026-05-05 11:49 46.34778 20.02702 36987 ft 463 kts 167°
2026-05-05 11:50 46.28530 20.04989 36990 ft 463 kts 167°
2026-05-05 11:50 46.22291 20.07269 36989 ft 463 kts 167°
2026-05-05 11:51 46.16061 20.09643 36983 ft 464 kts 162°
2026-05-05 11:51 46.09957 20.12721 36991 ft 465 kts 163°
2026-05-05 11:52 46.03831 20.15699 36990 ft 465 kts 163°
2026-05-05 11:52 45.98690 20.18180 36988 ft 465 kts 163°
2026-05-05 11:53 45.92556 20.21132 37001 ft 465 kts 163°
2026-05-05 11:53 45.86407 20.24084 37003 ft 466 kts 163°
2026-05-05 11:54 45.80257 20.27030 37005 ft 466 kts 163°
2026-05-05 11:54 45.74095 20.29975 36987 ft 467 kts 163°
2026-05-05 11:55 45.67935 20.32912 36981 ft 467 kts 163°
2026-05-05 11:55 45.61761 20.35849 36998 ft 468 kts 163°
2026-05-05 11:56 45.55578 20.38783 36988 ft 468 kts 163°
2026-05-05 11:56 45.49390 20.41713 36997 ft 468 kts 163°
2026-05-05 11:57 45.43203 20.44635 36998 ft 469 kts 163°
2026-05-05 11:57 45.37004 20.47557 36994 ft 469 kts 163°
2026-05-05 11:58 45.30795 20.50477 36994 ft 470 kts 163°
2026-05-05 11:58 45.24541 20.53410 36999 ft 471 kts 163°
2026-05-05 11:59 45.18319 20.56322 37003 ft 471 kts 163°
2026-05-05 11:59 45.12084 20.59234 37000 ft 472 kts 163°
2026-05-05 12:00 45.05848 20.62139 37005 ft 472 kts 163°
2026-05-05 12:00 44.99820 20.64941 37005 ft 473 kts 163°
2026-05-05 12:01 44.93565 20.67841 37001 ft 473 kts 163°
2026-05-05 12:01 44.87303 20.70739 37007 ft 474 kts 163°
2026-05-05 12:02 44.81040 20.73632 37015 ft 474 kts 163°
2026-05-05 12:02 44.74755 20.76527 37000 ft 475 kts 163°
2026-05-05 12:03 44.68555 20.79741 37010 ft 476 kts 161°
2026-05-05 12:03 44.62359 20.83032 37008 ft 476 kts 161°
2026-05-05 12:04 44.56154 20.86306 37009 ft 477 kts 161°
2026-05-05 12:04 44.49933 20.89579 37008 ft 477 kts 161°
2026-05-05 12:05 44.43668 20.92869 37020 ft 478 kts 161°
2026-05-05 12:05 44.37440 20.96131 37023 ft 478 kts 161°
2026-05-05 12:06 44.31208 20.99389 37026 ft 479 kts 161°
2026-05-05 12:06 44.24967 21.02643 37019 ft 479 kts 161°
2026-05-05 12:07 44.18723 21.05892 37023 ft 479 kts 161°
2026-05-05 12:07 44.12467 21.09139 37023 ft 480 kts 161°
2026-05-05 12:08 44.06207 21.12381 37025 ft 481 kts 161°
2026-05-05 12:08 43.99936 21.15622 37027 ft 481 kts 161°
2026-05-05 12:09 43.93663 21.18856 37027 ft 481 kts 161°
2026-05-05 12:09 43.87379 21.22089 37028 ft 482 kts 161°
2026-05-05 12:10 43.81100 21.25311 37034 ft 483 kts 161°
2026-05-05 12:10 43.74786 21.28545 37040 ft 483 kts 161°
2026-05-05 12:11 43.68492 21.31761 37030 ft 483 kts 161°
2026-05-05 12:11 43.62182 21.34978 37033 ft 483 kts 161°
2026-05-05 12:12 43.55868 21.38190 37037 ft 484 kts 161°
2026-05-05 12:12 43.49505 21.41419 37035 ft 484 kts 161°
2026-05-05 12:13 43.43177 21.44624 37033 ft 485 kts 161°
2026-05-05 12:13 43.36843 21.47824 37032 ft 485 kts 161°
2026-05-05 12:14 43.30505 21.51020 37040 ft 486 kts 161°
2026-05-05 12:14 43.24152 21.54215 37038 ft 486 kts 161°
2026-05-05 12:15 43.17805 21.57401 37037 ft 486 kts 161°
2026-05-05 12:15 43.11438 21.60589 37041 ft 487 kts 161°
2026-05-05 12:16 43.05067 21.63775 37053 ft 488 kts 161°
2026-05-05 12:16 42.98687 21.66957 37054 ft 488 kts 161°
2026-05-05 12:17 42.92273 21.70004 37060 ft 489 kts 163°
2026-05-05 12:17 42.85834 21.73016 37062 ft 489 kts 163°
2026-05-05 12:18 42.79399 21.76025 37057 ft 490 kts 163°
2026-05-05 12:18 42.72906 21.79055 37056 ft 490 kts 163°
2026-05-05 12:19 42.66453 21.82059 37057 ft 490 kts 163°
2026-05-05 12:19 42.59986 21.85063 37064 ft 491 kts 163°
2026-05-05 12:20 42.53526 21.88059 37059 ft 491 kts 163°
2026-05-05 12:20 42.47050 21.91054 37069 ft 492 kts 163°
2026-05-05 12:21 42.40581 21.94040 37067 ft 492 kts 163°
2026-05-05 12:21 42.37345 21.95531 36891 ft 488 kts 163°
2026-05-05 12:21 42.34118 21.97016 35911 ft 493 kts 163°
2026-05-05 12:22 42.30854 21.98518 35160 ft 494 kts 163°
2026-05-05 12:22 42.27609 22.00007 34455 ft 493 kts 163°
2026-05-05 12:22 42.24339 22.01508 33425 ft 499 kts 163°
2026-05-05 12:22 42.21063 22.03009 32747 ft 496 kts 163°
2026-05-05 12:23 42.17789 22.04508 31737 ft 500 kts 162°
2026-05-05 12:23 42.14479 22.06021 30756 ft 504 kts 162°
2026-05-05 12:23 42.11160 22.07537 29842 ft 504 kts 162°
2026-05-05 12:23 42.07827 22.09058 28796 ft 506 kts 162°
2026-05-05 12:24 42.04496 22.10577 27809 ft 506 kts 162°
2026-05-05 12:24 42.01162 22.12094 26880 ft 506 kts 162°
2026-05-05 12:24 41.97843 22.13603 26136 ft 502 kts 162°
2026-05-05 12:24 41.95608 22.14619 25619 ft 499 kts 162°
2026-05-05 12:25 41.92331 22.16106 24888 ft 496 kts 162°
2026-05-05 12:25 41.89072 22.17584 24165 ft 493 kts 161°
2026-05-05 12:25 41.85826 22.19054 23401 ft 491 kts 161°
2026-05-05 12:25 41.82597 22.20515 22589 ft 488 kts 161°
2026-05-05 12:26 41.79400 22.21960 21876 ft 482 kts 161°
2026-05-05 12:26 41.76239 22.23387 21220 ft 476 kts 161°
2026-05-05 12:26 41.73114 22.24797 20546 ft 472 kts 161°
2026-05-05 12:26 41.70026 22.26188 19953 ft 465 kts 161°
2026-05-05 12:27 41.66965 22.27566 19230 ft 463 kts 161°
2026-05-05 12:27 41.63936 22.28927 18697 ft 456 kts 161°
2026-05-05 12:27 41.60952 22.30268 17927 ft 453 kts 160°
2026-05-05 12:27 41.57960 22.31610 17157 ft 451 kts 161°
2026-05-05 12:28 41.55005 22.32935 16563 ft 445 kts 161°
2026-05-05 12:28 41.52094 22.34239 16016 ft 439 kts 161°
2026-05-05 12:28 41.49222 22.35524 15487 ft 433 kts 161°
2026-05-05 12:28 41.46381 22.36794 14726 ft 432 kts 161°
2026-05-05 12:29 41.43532 22.38067 14159 ft 429 kts 161°
2026-05-05 12:29 41.40726 22.39319 13638 ft 423 kts 161°
2026-05-05 12:29 41.37961 22.40552 13126 ft 416 kts 161°
2026-05-05 12:29 41.35231 22.41768 12622 ft 410 kts 161°
2026-05-05 12:30 41.32544 22.42964 12190 ft 404 kts 161°
2026-05-05 12:30 41.29904 22.44137 11768 ft 397 kts 161°
2026-05-05 12:30 41.27300 22.45295 11328 ft 391 kts 161°
2026-05-05 12:30 41.24748 22.46428 11071 ft 381 kts 161°
2026-05-05 12:31 41.22276 22.47525 10897 ft 369 kts 161°
2026-05-05 12:31 41.19853 22.48599 10740 ft 357 kts 161°
2026-05-05 12:31 41.17528 22.49629 10564 ft 346 kts 161°
2026-05-05 12:31 41.15279 22.50625 10413 ft 336 kts 161°
2026-05-05 12:32 41.13110 22.51655 10238 ft 327 kts 153°
2026-05-05 12:32 41.11283 22.53359 10076 ft 317 kts 141°
2026-05-05 12:32 41.09562 22.55144 9834 ft 312 kts 142°
2026-05-05 12:32 41.07852 22.56905 9499 ft 310 kts 142°
2026-05-05 12:33 41.06164 22.58647 9154 ft 308 kts 142°
2026-05-05 12:33 41.04476 22.60386 8847 ft 305 kts 141°
2026-05-05 12:33 41.02806 22.62105 8538 ft 303 kts 141°
2026-05-05 12:33 41.01156 22.63806 8226 ft 301 kts 141°
2026-05-05 12:34 40.99502 22.65508 7919 ft 299 kts 141°
2026-05-05 12:34 40.97864 22.67189 7618 ft 297 kts 141°
2026-05-05 12:34 40.96236 22.68868 7309 ft 296 kts 141°
2026-05-05 12:34 40.94612 22.70535 7003 ft 294 kts 141°
2026-05-05 12:35 40.93003 22.72187 6697 ft 292 kts 142°
2026-05-05 12:35 40.91407 22.73825 6410 ft 290 kts 142°
2026-05-05 12:35 40.89819 22.75454 6090 ft 287 kts 142°
2026-05-05 12:35 40.88247 22.77064 5815 ft 285 kts 142°
2026-05-05 12:36 40.86689 22.78660 5608 ft 279 kts 142°
2026-05-05 12:36 40.85183 22.80202 5487 ft 269 kts 142°
2026-05-05 12:36 40.83727 22.81691 5351 ft 261 kts 142°
2026-05-05 12:36 40.82319 22.83132 5231 ft 251 kts 142°
2026-05-05 12:37 40.80966 22.84514 5138 ft 242 kts 142°
2026-05-05 12:37 40.79654 22.85856 4990 ft 236 kts 142°
2026-05-05 12:37 40.78373 22.87171 4899 ft 229 kts 143°
2026-05-05 12:37 40.77105 22.88383 4641 ft 223 kts 150°
2026-05-05 12:38 40.75752 22.89258 4408 ft 218 kts 160°
2026-05-05 12:38 40.74319 22.89871 4203 ft 216 kts 166°
2026-05-05 12:38 40.72880 22.90394 3848 ft 211 kts 167°
2026-05-05 12:38 40.71480 22.90861 3637 ft 207 kts 168°
2026-05-05 12:39 40.70087 22.91311 3372 ft 206 kts 168°
2026-05-05 12:39 40.68691 22.91760 3075 ft 205 kts 168°
2026-05-05 12:39 40.67318 22.92201 2822 ft 203 kts 168°
2026-05-05 12:39 40.65940 22.92638 2577 ft 203 kts 169°
2026-05-05 12:40 40.64569 22.93073 2311 ft 203 kts 168°
2026-05-05 12:40 40.63190 22.93514 2050 ft 204 kts 169°
2026-05-05 12:40 40.61809 22.93956 1770 ft 202 kts 168°
2026-05-05 12:40 40.60473 22.94383 1509 ft 194 kts 168°
2026-05-05 12:41 40.59186 22.94794 1277 ft 184 kts 168°
2026-05-05 12:41 40.57997 22.95177 1079 ft 168 kts 168°
2026-05-05 12:41 40.56908 22.95523 849 ft 153 kts 168°
2026-05-05 12:41 40.55907 22.95842 630 ft 146 kts 169°
2026-05-05 12:42 40.54913 22.96159 465 ft 148 kts 169°
2026-05-05 12:42 40.53915 22.96484 260 ft 147 kts 170°
2026-05-05 12:42 40.52935 22.96795 54 ft 143 kts 169°
2026-05-05 12:42 40.52061 22.97068 28 ft 115 kts 166°
2026-05-05 12:43 40.51560 22.97228 33 ft 23 kts 163°
2026-05-05 12:43 40.51513 22.97353 32 ft 17 kts 78°
2026-05-05 12:43 40.51617 22.97390 31 ft 19 kts 347°
2026-05-05 12:43 40.51750 22.97348 31 ft 21 kts 346°
2026-05-05 12:44 40.51901 22.97301 29 ft 24 kts 347°
2026-05-05 12:44 40.52056 22.97252 30 ft 14 kts 347°
2026-05-05 12:44 40.52099 22.97326 31 ft 13 kts 95°
2026-05-05 12:44 40.52075 22.97458 31 ft 16 kts 104°
2026-05-05 12:45 40.52045 22.97610 31 ft 18 kts 104°
2026-05-05 12:45 40.52034 22.97733 31 ft 10 kts 58°
2026-05-05 12:45 40.52098 22.97721 31 ft 12 kts 315°
2026-05-05 12:45 40.52139 22.97699 31 ft 6 kts 28°
2026-05-05 12:46 40.52176 22.97742 31 ft 9 kts 45°
2026-05-05 12:46 40.52189 22.97760 31 ft 0 kts 45°